Location: Lobstick
(53.6000°N, 115.1667°W)
Time: 08:38:56
(UTC+00:00)

MOZHAYETS 4 - Visible Passes

Search period start: 02 December 2023 00:00
Search period end: 12 December 2023 00:00
Orbit: 656 x 672 km, 98.3° (Epoch: 02 December)

Date Brightness Start Highest point End Pass type
(mag) Time Alt. Az. Time Alt. Az. Time Alt. Az.
02 Dec 8.0 00:07:34 10° NNE 00:12:11 75° WNW 00:16:47 10° SSW visible
02 Dec 10.4 01:45:51 10° NNW 01:48:25 15° NW 01:50:58 10° W visible
03 Dec 8.9 00:38:36 10° N 00:42:57 42° WNW 00:47:17 10° SW visible
04 Dec 9.8 01:09:49 10° N 01:13:35 25° WNW 01:17:21 10° WSW visible
05 Dec 7.9 00:03:10 10° NNE 00:07:48 81° WNW 00:12:25 10° SSW visible
05 Dec 10.3 01:41:19 10° NNW 01:44:06 16° NW 01:46:52 10° W visible
06 Dec 8.8 00:34:09 10° N 00:38:34 46° WNW 00:42:57 10° SW visible
07 Dec 9.6 01:05:19 10° N 01:09:12 27° WNW 01:13:04 10° WSW visible
07 Dec 7.8 23:58:42 10° NNE 00:03:22 88° W 00:07:58 10° SSW visible
08 Dec 10.3 01:36:44 10° NNW 01:39:43 17° NW 01:42:40 10° W visible
09 Dec 8.6 00:29:39 10° N 00:34:07 50° WNW 00:38:34 10° SW visible
09 Dec 10.6 02:09:01 10° NNW 02:10:05 11° NW 02:11:09 10° WNW visible
10 Dec 9.5 01:00:46 10° N 01:04:45 29° WNW 01:08:44 10° WSW visible
10 Dec 7.8 23:54:12 10° NNE 23:58:51 84° ESE 00:03:28 10° SSW visible
11 Dec 10.2 01:32:07 10° NNW 01:35:15 18° NW 01:38:23 10° W visible
